Total_Precipitation_Accumulation
2.20 2.25 2.10 2.05 1.98 1.98 1.99 1.95 1.93 1.94 1.91 1.92 2.06 2.13 2.10 2.14 2.24 2.36 2.17 2.26 2.27 2.31 2.32 2.45 2.51 2.72 2.73 2.67 2.80 2.85 2.89 2.94 2.57 2.06 2.07 2.21 2.22 2.06 2.06 2.00 1.97 1.98 1.90
1.92 1.96 1.94 1.94 1.92 1.83 1.79 1.86 1.93 1.85 1.77 1.82 1.90 1.89 1.81 1.93 2.12 2.15 2.06 2.15 2.22 2.21 2.38 2.64 2.58 2.70 2.79 2.85 3.02 2.82 2.86 3.16 3.01 2.56 2.47 2.59 2.51 2.32 2.23 2.12 1.84 1.73 1.75
1.61 1.68 1.69 1.70 1.67 1.65 1.66 1.71 1.78 1.81 1.80 1.81 1.80 1.75 1.74 1.80 1.92 1.93 2.10 2.23 2.26 2.35 2.54 2.66 2.74 3.03 2.87 2.93 2.96 2.86 2.87 3.09 3.26 2.94 2.68 2.81 2.71 2.46 2.47 2.16 1.97 2.05 1.79
1.49 1.56 1.73 1.81 1.85 1.85 1.79 1.82 1.91 2.00 1.95 1.97 1.97 2.01 2.03 2.00 2.02 2.12 2.25 2.35 2.42 2.49 2.66 2.72 2.78 2.90 2.99 3.19 3.20 3.25 3.37 3.51 3.61 3.37 3.10 3.13 3.11 3.03 2.88 2.44 2.31 2.21 2.04
1.74 1.81 2.01 2.20 2.26 2.15 2.10 2.16 2.19 2.23 2.16 2.33 2.35 2.38 2.49 2.45 2.25 2.42 2.51 2.51 2.75 2.73 2.78 2.74 2.71 2.90 3.04 3.22 3.07 3.26 3.61 3.75 3.81 3.77 3.62 3.74 3.62 3.52 3.13 2.76 2.63 2.49 2.28
1.61 1.78 2.02 2.24 2.37 2.33 2.37 2.52 2.52 2.47 2.57 2.70 2.67 2.66 2.63 2.32 2.51 2.67 2.69 2.80 2.91 2.87 2.83 2.86 2.80 2.80 2.74 2.78 2.83 2.97 3.24 3.40 3.55 3.73 3.77 3.80 3.74 3.66 3.48 3.20 2.85 2.59 2.31
1.93 2.13 2.24 2.40 2.55 2.53 2.47 2.51 2.54 2.59 2.59 2.66 2.68 2.73 2.57 2.54 2.67 2.52 2.57 2.56 2.65 2.76 2.82 2.86 2.60 2.44 2.60 2.45 2.62 2.73 2.70 2.73 2.82 3.10 3.23 3.19 3.45 3.66 3.65 3.19 2.85 2.55 2.28
1.91 2.12 2.27 2.47 2.58 2.61 2.67 2.67 2.74 2.85 2.86 2.87 2.85 2.84 2.77 2.64 2.64 2.43 2.53 2.41 2.42 2.46 2.53 2.58 2.55 2.44 2.44 2.57 2.57 2.45 2.21 2.12 2.25 2.24 2.26 2.49 2.86 3.30 3.48 3.31 3.30 2.97 2.56
2.35 2.51 2.59 2.61 2.69 2.73 2.75 2.89 3.01 3.12 3.11 3.12 3.09 3.04 2.99 3.00 3.00 2.68 2.59 2.37 2.42 2.43 2.49 2.51 2.49 2.32 2.48 2.45 2.36 2.29 2.14 1.95 1.96 2.02 2.05 2.26 2.58 2.87 3.17 3.23 3.15 3.08 2.66
2.78 2.88 2.93 2.96 2.96 2.90 2.91 3.01 3.07 3.13 3.13 3.15 3.06 3.08 3.02 3.00 3.12 2.86 2.66 2.38 2.41 2.44 2.55 2.57 2.58 2.37 2.44 2.38 2.27 2.26 2.12 2.02 2.04 1.98 2.00 2.03 2.07 2.40 2.80 2.80 2.82 2.90 2.68
2.97 3.01 3.06 3.12 3.24 3.33 3.38 3.19 3.04 3.03 3.11 3.20 3.18 3.23 3.22 3.15 3.14 2.76 2.60 2.47 2.49 2.52 2.46 2.44 2.49 2.55 2.30 2.13 2.02 1.97 2.04 2.17 2.23 2.09 1.98 1.94 1.98 2.09 2.30 2.38 2.47 2.58 2.53
2.89 3.00 3.07 3.08 3.00 3.02 3.27 3.32 3.28 3.19 3.10 3.12 3.20 3.12 3.02 2.97 2.81 2.47 2.25 2.24 2.32 2.33 2.33 2.36 2.41 2.42 2.15 1.92 1.70 1.64 1.74 1.79 1.91 1.97 1.89 1.83 1.83 1.85 2.04 2.33 2.50 2.53 2.48
2.71 2.83 3.01 3.09 3.14 3.10 3.07 3.15 3.16 3.12 2.97 2.78 2.81 2.84 2.82 2.82 2.69 2.38 2.08 2.00 2.03 1.96 2.05 2.30 2.34 2.18 1.99 1.82 1.71 1.67 1.60 1.52 1.63 1.77 1.65 1.63 1.71 1.84 2.07 2.39 2.62 2.79 2.72
2.73 2.76 2.82 2.90 2.96 3.03 3.10 3.04 3.00 2.99 2.95 2.78 2.76 2.79 2.79 2.72 2.51 2.21 2.04 1.95 1.91 1.87 1.98 2.20 2.29 2.25 2.07 1.93 1.82 1.66 1.48 1.46 1.50 1.58 1.67 1.67 1.78 1.89 1.99 2.15 2.47 2.67 2.75
2.52 2.47 2.54 2.71 2.81 2.88 3.01 3.06 2.89 2.78 2.81 2.70 2.74 2.91 2.84 2.59 2.40 2.23 1.98 1.90 1.89 1.99 2.06 2.14 2.29 2.32 2.27 2.14 1.98 1.84 1.71 1.59 1.52 1.50 1.62 1.66 1.69 1.74 1.74 1.81 2.06 2.25 2.26
2.48 2.48 2.47 2.51 2.66 2.76 2.71 2.77 2.79 2.54 2.47 2.32 2.35 2.43 2.45 2.35 2.23 2.14 2.02 1.95 1.92 1.95 1.92 1.97 2.24 2.30 2.33 2.29 2.16 1.96 1.81 1.71 1.64 1.63 1.69 1.70 1.69 1.76 1.80 1.83 1.93 2.08 2.10
2.55 2.65 2.60 2.42 2.37 2.42 2.43 2.40 2.41 2.31 2.05 1.91 1.86 1.83 1.78 1.79 1.82 1.90 1.93 1.90 1.85 1.73 1.57 1.69 1.98 2.18 2.26 2.28 2.19 1.97 1.80 1.81 1.91 1.85 1.79 1.76 1.76 1.78 1.88 1.92 1.97 2.10 2.16
2.19 2.28 2.27 2.15 2.08 2.06 2.07 2.07 1.97 1.97 1.90 1.74 1.68 1.64 1.63 1.63 1.68 1.88 2.03 1.84 1.68 1.59 1.46 1.58 1.83 2.09 2.20 2.26 2.24 2.17 2.03 2.01 2.05 2.00 1.94 1.89 1.87 1.88 1.87 1.89 1.94 2.02 2.07
2.01 2.02 1.95 1.96 2.01 2.05 2.13 2.16 2.07 1.98 2.00 1.94 1.80 1.63 1.66 1.66 1.72 2.02 2.10 1.68 1.55 1.60 1.63 1.64 1.73 1.92 2.11 2.22 2.24 2.24 2.20 2.19 2.19 2.20 2.13 2.08 2.04 2.05 1.96 1.87 1.88 1.99 2.00
1.93 2.07 2.00 1.88 1.90 2.08 2.21 2.18 2.21 2.26 2.21 2.24 2.21 1.90 1.72 1.64 1.57 1.82 1.95 1.80 1.74 1.73 1.71 1.71 1.77 1.91 2.09 2.24 2.28 2.28 2.32 2.27 2.25 2.22 2.16 2.11 2.06 2.05 2.04 1.98 1.99 2.04 1.99
1.87 1.92 1.95 1.86 1.89 2.01 2.12 2.21 2.21 2.25 2.32 2.33 2.29 2.09 1.87 1.62 1.66 1.86 2.06 2.01 1.94 1.94 1.91 1.89 1.95 2.07 2.15 2.22 2.19 2.11 2.10 2.15 2.13 2.09 2.07 2.06 2.02 1.98 2.00 2.04 2.03 2.09 2.08
1.86 1.86 1.88 1.92 1.97 2.02 2.05 2.18 2.34 2.37 2.38 2.42 2.28 2.18 2.08 1.81 1.77 1.90 2.02 2.04 2.06 2.03 1.99 2.00 2.07 2.14 2.19 2.20 2.16 2.11 2.07 2.07 2.07 2.06 2.08 2.08 2.09 2.07 2.11 2.10 2.10 2.16 2.18
1.66 1.74 1.86 1.90 1.92 1.95 1.99 2.06 2.16 2.21 2.27 2.30 2.14 2.09 2.01 1.94 1.85 1.85 1.94 1.96 1.95 1.94 1.89 1.93 1.99 1.98 1.99 2.07 2.06 2.04 2.02 1.99 1.98 2.02 2.11 2.14 2.17 2.16 2.13 2.07 2.03 2.06 2.10
1.29 1.37 1.42 1.50 1.62 1.71 1.78 1.88 1.87 1.85 1.90 1.96 1.88 1.86 1.80 1.78 1.71 1.69 1.72 1.73 1.76 1.79 1.79 1.77 1.79 1.81 1.76 1.75 1.79 1.81 1.77 1.79 1.82 1.88 1.94 2.04 2.08 2.16 2.19 2.13 2.12 2.11 2.12
1.27 1.27 1.26 1.33 1.41 1.50 1.60 1.66 1.73 1.76 1.73 1.70 1.68 1.65 1.62 1.60 1.60 1.62 1.60 1.59 1.56 1.55 1.50 1.50 1.56 1.58 1.59 1.49 1.42 1.42 1.52 1.54 1.54 1.61 1.64 1.75 1.86 1.97 2.06 2.11 2.16 2.20 2.20
1.23 1.27 1.27 1.31 1.35 1.40 1.47 1.54 1.62 1.63 1.60 1.52 1.50 1.51 1.55 1.53 1.50 1.48 1.41 1.39 1.43 1.43 1.40 1.37 1.35 1.37 1.37 1.33 1.31 1.37 1.36 1.25 1.29 1.46 1.47 1.53 1.68 1.77 1.85 1.94 1.95 2.02 2.07